Actions TitleArtistBPMKeyDate
  1 Zatox - Survive (Extended Mix) Zatox1504A2018-05-28T19:35:40+00:00
  2 Wildstylez - Children Of Drums (Extended Mix) Wildstylez15011A2018-05-28T19:34:59+00:00
  3 Wasted Penguinz and Crisis Era - Can't stay (Extended Mix) Wasted Penguinz and Crisis Era1503A/2A2018-05-28T19:33:46+00:00
  4 TNT, Brennan Heart - Hard Knockin' Beats (2018 Edit) (Extended Mix) TNT, Brennan Heart1505A2018-05-28T19:32:42+00:00
  5 Technikore & Ravine - Freakz (Original Mix) Technikore & Ravine8011A2018-05-28T19:31:01+00:00
  6 Sub Zero Project - The XPRMNT (Extended Mix) Sub Zero Project15010A2018-05-28T19:28:41+00:00
  7 Project One - Maximum Force (Defqon.1 Anthem 2018) (Pro Mix) Project One1507B2018-05-28T19:25:29+00:00
  8 Max Enforcer - Blockbusters (Extended Mix) Max Enforcer1504A2018-05-28T19:22:11+00:00
  10 Mandy - Gimme Your Love (Extended Mix) Mandy1508A2018-05-28T19:19:57+00:00
  11 Lutez, Shinsei Feat. Natalia Natchan - Fly Away (Extended Mix) Lutez, Shinsei Feat. Natalia Natchan1549A/8A2018-05-28T19:18:29+00:00
  12 Kutski, Kit Hype - Fly To The Stars (Extended Mix) Kutski, Kit Hype15012B/9A2018-05-28T19:16:16+00:00
  13 Dr Rude - Drop That Low (Extended Mix) Dr Rude1509A2018-05-28T19:11:53+00:00
  14 DJ Isaac - Let There Be Hardstyle (Extended Mix) DJ Isaac1501A2018-05-28T19:10:02+00:00
  15 Dash Berlin Feat. Do - Heaven (Dj Isaac Extended Remix) Dash Berlin Feat. Do1505A2018-05-28T19:08:28+00:00
  16 Darren Styles - Switch (Extended Mix) Darren Styles8011A2018-05-28T19:06:33+00:00
  17 Dany BPM - Ragga Style (Original Mix) Dany BPM1506A2018-05-28T19:04:36+00:00
  18 Da Tweekaz ft. HALIENE - Bring Me To Life (Original Mix) Da Tweekaz ft. HALIENE1509A2018-05-28T19:03:33+00:00
  19 Bellini - Samba De Janeiro (Forever Lost Samba Tool) Bellini1508A2018-05-28T19:00:37+00:00
  20 Audiotricz - Discover The New (Original Mix) Audiotricz15012A2018-05-28T18:57:39+00:00
  21 Zatox - Unstoppable (Extended Mix) Zatox1504A2018-04-30T12:34:13+00:00
  22 Brennan Heart & Toneshifterz - Define Yourself (Extended Mix) Brennan Heart & Toneshifterz1501A2018-04-30T12:33:32+00:00
  23 Technikore Feat. Emi - Just Be 2.0 (Original Mix) Technikore Feat. Emi858A2018-04-30T12:32:53+00:00
  24 Da Tweekaz & Sephyx - This Is Special (Extended Mix) Da Tweekaz & Sephyx15012A2018-04-30T12:32:14+00:00
  25 Double F-Ect - Here I Am (Original Mix) Double F-Ect15011A2018-04-30T12:31:38+00:00
  26 Adrenalize Feat. Adn - Get Up (Original Mix) Adrenalize Feat. Adn1501B2018-04-30T12:31:04+00:00
  27 Crystal Lake - Gravity (Extended Mix) Crystal Lake1136A2018-04-30T12:30:29+00:00
  28 Steve Hill And Technikal And Francesco Zeta - Rhythm Is A Dancer (Original Mix) Steve Hill And Technikal And Francesco Zeta1508A2018-04-30T12:29:58+00:00
  29 Atmozfears And Audiotricz - Reawakening (Cally Edit) Atmozfears And Audiotricz1504A2018-04-30T12:29:26+00:00
  30 Brennan Heart Ft. Trevor Guthrie - Won't Hold Me Down (Gravity) (Extended Mix) Brennan Heart Ft. Trevor Guthrie1502A2018-04-30T12:28:55+00:00
  31 Thomas Fersen - Bella Ciao (Wyko Remix) Thomas Fersen1507A2018-04-30T12:28:23+00:00
  32 Lauv - Chasing Fire (Twisted Melodiez Hardstyle Bootleg) Lauv1507B2018-04-30T12:27:51+00:00
  33 Galaxy Kid - Don't Stop Me (Extented Mix) Galaxy Kid857B2018-04-30T12:27:22+00:00
  34 D-Block & S-Te-Fan - Twilight Zone (Pro Mix) D-Block & S-Te-Fan1503A2018-04-30T12:26:53+00:00
  35 Psyko Punkz & Dj Isaac And Sound Rush - Unbreakable (Extended Mix) Psyko Punkz & Dj Isaac And Sound Rush1509A2018-04-30T12:26:21+00:00
  36 Technikore - Hyperspace 2018 (Original Mix) Technikore859A2018-04-30T12:25:54+00:00
  37 Garmiani - Bomb A Drop (Komb Bootleg) Garmiani1134A2018-04-30T12:25:29+00:00
  38 Syrin & N3Bula - Collide (Original Mix) Syrin & N3Bula1508A2018-04-30T12:25:05+00:00
  39 Demi Kanon & Inverze - Close Our Eyes (Original Mix) Demi Kanon & Inverze1505A2018-04-30T12:24:41+00:00
  40 Wiwek & Mike Cervello - Ni De Coña (Lny Tnz Remix) Wiwek & Mike Cervello1555B/2A2018-04-30T12:24:18+00:00
  9 Gigi D'agostino - L'amour Toujours (Zany Remake) Gigi D'agostino15010A/10B2018-05-28T19:21:00+00:00
  41 Toneshifterz, Will Sparks - Home To You (Extended Mix) Toneshifterz, Will Sparks1504A2018-03-25T15:07:29+00:00
  42 Code Black - Together As One (Extended Mix) Code Black15010A2018-03-25T15:07:08+00:00
  43 David Guetta, Martin Garrix & Brooks - Like I Do (Twisted Melodiez & N3Bula Hardstyle Bootleg) David Guetta, Martin Garrix & Brooks1506B/5A2018-03-25T15:06:49+00:00
  44 Kaaze - End Of The World (Dr Phunk Extended Mix) Kaaze1129A2018-03-25T15:06:41+00:00
  45 E-Force - War Machine (Original Mix) E-Force806A2018-03-25T15:06:29+00:00
  46 Timmy Trumpet & Savage - Deja-Vu (Dimatik & Overdrive Remix) Timmy Trumpet & Savage1504A2018-03-25T15:06:12+00:00
  47 Headhunterz & Sub Zero Project - Our Church (Extended Mix) Headhunterz & Sub Zero Project15012A2018-03-25T14:54:39+00:00
  48 Syren X Nadia Qualita - Milkshake (Original Mix) Syren X Nadia Qualita15011A/2B2018-03-25T14:54:28+00:00
  49 Sephyx - Demons (Extended Mix) Sephyx1509A2018-03-25T14:54:23+00:00
  50 Tweekacore & Darren Styles - Partystarter (Da Tweekaz Mix) (Extended Mix) Tweekacore & Darren Styles1506A2018-03-25T14:54:17+00:00
  51 Cyber - Mf Bass (Original Mix) Cyber1504A2018-03-25T14:54:08+00:00
  52 Da Tweekaz - Essence Of Eternity (Reverze Anthem 2018) (Extended Mix) Da Tweekaz1509A2018-03-25T14:54:02+00:00
  53 Sub Zero Project Ft. Lxcpr - Unity (Extended Mix) Sub Zero Project Ft. Lxcpr1505A2018-03-25T14:53:49+00:00
  54 Jay Reeve - The Blackbird (Extended Mix) Jay Reeve15011A2018-03-25T14:53:40+00:00
  55 Mark With A K & Warface Ft. Jasmine Mcguinness & Dv8 Rocks! - Radioactive (Extended Mix) Mark With A K & Warface Ft. Jasmine Mcguinness & Dv8 Rocks!1558A2018-03-25T14:53:32+00:00
  56 Hardwell & Kshmr - Power (Charly Lownoise Remix) Hardwell & Kshmr1554A2018-03-25T14:53:24+00:00
  57 Headhunterz & Sound Rush - Rescue Me (Extended Mix) Headhunterz & Sound Rush1136A2018-03-25T14:53:15+00:00
  58 Warface & Frequencerz - F The Industry (Original Mix) Warface & Frequencerz1574A2018-03-25T14:53:04+00:00
  59 Ran-D & Clockartz - Victorious (Edit) Ran-D & Clockartz1508A2018-03-25T14:52:57+00:00
  60 Zatox & Pherato - Babylon (Extended Mix) Zatox & Pherato1509A2018-02-16T09:20:48+00:00
  61 Warface, Delete - Addicted (Original Mix) Warface, Delete1584A2018-02-16T09:20:43+00:00
  62 W&W x Vini Vici - Chakra (Wildstylez Remix) W&W x Vini Vici1534A2018-02-16T09:20:34+00:00
  63 Technoboy, Tuneboy, Sound Rush - Right Now (Extended Mix) Technoboy, Tuneboy, Sound Rush1506A2018-02-16T09:20:23+00:00
  64 Sub Sonik - Drums Of War (Extended Mix) Sub Sonik1554B2018-02-16T09:20:16+00:00
  65 Sephyx - Freedom (Extended Mix) Sephyx1504A2018-02-16T09:20:08+00:00
  66 MDB - I Can't Wait (Original Mix) MDB1504A2018-02-16T09:19:55+00:00
  67 Low-E & Zero Sanity Ft. Maia - Crusade (Extended Mix) Low-E & Zero Sanity Ft. Maia1504A2018-02-16T09:19:41+00:00
  68 Keltek - Dance the Way I Am (Original Mix) Keltek1504A2018-02-16T09:19:25+00:00
  69 JNXD - Hard Is My Style (Extended Mix) JNXD1506A2018-02-16T09:19:11+00:00
  70 Jebroer and Dr Phunk - Leven Na De Dood (Original Mix) Jebroer and Dr Phunk1558B2018-02-16T09:19:00+00:00
  71 Dr Rude ft. Fred Maple - We Are Perfect (Extended Mix) Dr Rude ft. Fred Maple1508B2018-02-16T09:18:52+00:00
  72 Dr Phunk - The Next Level (Original Mix) Dr Phunk1504A2018-02-16T09:18:38+00:00
  73 Delete - Take It Back (Extended Mix) Delete155All2018-02-16T09:18:27+00:00
  74 Da Tweekaz feat. Anklebreaker - Respect (Extended Mix) Da Tweekaz feat. Anklebreaker1135A2018-02-16T09:18:18+00:00
  75 Crystal Lake - Space People (Extended Mix) Crystal Lake1484A2018-02-16T09:18:06+00:00
  76 Coone & Hard Driver - Showtime 2.0 (Extended Mix) Coone & Hard Driver1504A2018-02-16T09:17:55+00:00
  77 Bass Modulators - Imagine (Original Mix) Bass Modulators1508A2018-02-16T09:17:44+00:00
  78 Atmozfears - Sacrifice (Extended Mix) Atmozfears1504A2018-02-16T09:17:32+00:00
  79 Zatox - Sunlight (Extended Mix) Zatox1504A2018-01-15T12:11:47+00:00
  80 Showtek Vs Technoboy & Tuneboy - Mellow (Extended Mix) Showtek Vs Technoboy & Tuneboy15010A2018-01-15T12:11:25+00:00
  81 Sephyx - Monster (Extended Mix) Sephyx15011A2018-01-15T12:10:57+00:00
  82 Ran D - Zombie (Original Mix) Ran D1559A2018-01-15T12:10:35+00:00
  83 Radical Redemption - Brutal 6.0 (Original Mix) Radical Redemption1554B2018-01-15T12:10:00+00:00
  84 Macklemore & Ryan Lewis Ft. Ray Dalton Ft. John Harris - Can't Hold Us (Frontliner Never Comes Down Bootleg) Macklemore & Ryan Lewis Ft. Ray Dalton Ft. John Harris1504A2018-01-15T12:09:35+00:00
  85 Headhunterz - Destiny (Black Stylerz Extended Edit) Headhunterz1135A2018-01-15T12:09:14+00:00
  86 Gunz For Hire - Armed & Dangerous (Edit) Gunz For Hire1506A2018-01-15T12:08:44+00:00
  87 Fallen Superhero - The Force Theme (Original Mix) Fallen Superhero1504A2018-01-15T12:08:00+00:00
  88 Eiffel 65 - Blue (Team Blue Extended Mix) Eiffel 651506A2018-01-15T12:07:58+00:00
  89 Dj Snake - Propaganda (Dr. Rude Remix) Dj Snake1504A2018-01-15T12:07:24+00:00
  91 Da Tweekaz - Final Examination Of Time (Original Mix) Da Tweekaz1506A2018-01-15T12:07:00+00:00
  90 Coone & Da Tweekaz - D.W.X. (10 Years Dirty Workz Mix) (Extended Mix) Coone & Da Tweekaz1506A2018-01-15T12:07:01+00:00
  92 Cascada - Everytime We Touch (Fallen Superhero Remix) Cascada15011B/11A2018-01-15T12:06:43+00:00
  93 Carnage X Timmy Trumpet - Psy Or Die (Memorize Bootleg) Carnage X Timmy Trumpet1506A2018-01-15T12:06:29+00:00
  94 Brennan Heart, Jonathan Mendelsohn - Imaginary (Original Mix) Brennan Heart, Jonathan Mendelsohn1509A2018-01-15T12:06:15+00:00
  95 Brennan Heart & Galactixx Ft Elle B - Dreamer (Original Mix) Brennan Heart & Galactixx Ft Elle B1507B2018-01-15T12:05:52+00:00
  96 Audiofreq - The Grid (Syren Edit) Audiofreq1504A2018-01-15T12:05:46+00:00
  97 Atmozfears Feat. David Spekter – Keep Me Awake (Extended Mix) Atmozfears Feat. David Spekter1507B2018-01-15T12:05:31+00:00
  98 Armin Van Buuren, Vini Vici, Hilight Tribe - Great Spirit (Wildstylez Extended Remix) Armin Van Buuren, Vini Vici, Hilight Tribe1509A2018-01-15T12:05:06+00:00
Starting download...